Flag for China Weather past 2 weeks in Tsingtao, Shandong, China

Now
81 °F

Passing clouds.


Feels Like: 86 °F
Forecast: 77 / 84 °F
Wind: 6 mph from Southeast

Location: Qingdao Airport

Current Time: Jul 23, 2014 at 3:53:52 AM

Latest Report: Jul 23, 2014 at 12:00 AM


Visibility: 5 mi

Pressure: 29.68 "Hg

Humidity: 84%

Dew point: 75 °F

Location of TsingtaoLocation

Historic Weather in Tsingtao — Graph

°F

Tsingtao temperature yesterday

Maximum temperature yesterday: 97 °F (at 2:00 PM)
Minimum temperature yesterday: 79 °F (at 6:00 PM)
Average temperature yesterday: 85 °F

Past Weeks' High & Low Weather Summary

 TemperatureHumidityPressure
High99 °F (Jul 19, 2:00 PM)94% (Jul 22, 6:00 PM)29.86 "Hg (Jul 22, 6:00 PM)
Low68 °F (Jul 9, 4:00 AM)32% (Jul 9, 1:00 PM)29.50 "Hg (Jul 9, 5:00 PM)
Average81 °F67%29.68 "Hg
* Reported Midnight between Jul 7 and Jul 8 — Midnight between Jul 22 and Jul 23, Tsingtao, Weather by CustomWeather, © 2014

Note: Actual official high and low records may vary slightly from our data, if they occured in-between our weather recording intervals... More about our weather records

Advertising

Tsingtao weather history for previous 24 hours

 ConditionsComfort  
Time TempWeatherWind HumidityBarometerVisibility
12:00 AM
Jul 23
81 °FPassing clouds.6 mph84%29.68 "Hg5 mi
11:00 PM
Jul 22
81 °FPassing clouds.3 mph89%29.68 "Hg5 mi
10:00 PM81 °FClear.1 mph89%29.68 "Hg5 mi
9:00 PM81 °FClear.1 mph89%29.68 "Hg10 mi
8:00 PM81 °FClear.1 mph89%29.65 "Hg10 mi
7:00 PM81 °FPassing clouds.3 mph89%29.65 "HgN/A
6:00 PM79 °FFog.1 mph94%29.65 "Hg3 mi
5:00 PM81 °FThunderstorms. Fog.10 mph89%29.65 "Hg1 mi
4:00 PM93 °FScattered clouds.3 mph56%29.62 "Hg4 mi
3:00 PM95 °FClear.3 mph53%29.62 "Hg4 mi
2:00 PM97 °FScattered clouds.3 mph53%29.62 "Hg3 mi
1:00 PM93 °FHaze.3 mph59%29.62 "Hg3 mi
12:00 PM91 °FHaze.3 mph63%29.62 "Hg3 mi
11:00 AM90 °FFog.1 mph67%29.65 "Hg2 mi
10:00 AM90 °FFog.3 mph71%29.65 "Hg2 mi
9:00 AM88 °FFog.3 mph75%29.65 "Hg2 mi
8:00 AM86 °FFog.6 mph75%29.65 "Hg2 mi
7:00 AM84 °FFog.3 mph79%29.65 "Hg2 mi
6:00 AM82 °FFog.8 mph84%29.62 "Hg2 mi
5:00 AM81 °FFog.6 mph89%29.62 "Hg2 mi
4:00 AM82 °FFog.10 mph84%29.62 "Hg3 mi
3:00 AM81 °FClear.13 mph89%29.62 "Hg4 mi
Weather by CustomWeather, © 2014

See weather overviewHow to use our weather pages